FENGYUN 3F

Last updated on Fri Sep 11 2026 00:02:39 GMT+0000 (Coordinated Universal Time)

1 57490U 23111A 26253.58917656 .00000024 00000+0 31494-4 0 9998 2 57490 98.6769 321.9755 0001106 115.4428 244.6863 14.19950572160987
UTC large
Height (km)
Speed (km/s)
/
Latitude / Longitude
Inclination (degrees)
Orbital Period (minutes)
Azimuth
Elevation
Range (km)
Doppler Factor

Next 0 passes for location: London (51.5072 / 0.1276)

No passes found over London.
FENGYUN 3F